Weather History for Muskegon, MI

Change the Weather History Date:

Friday, October 5, 2012

  Actual Average Record
Temperature  
Mean Temperature 53 °F 54 °F  
Max Temperature 58 °F 63 °F 83 °F (2007)
Min Temperature 48 °F 46 °F 28 °F (2004)
Degree Days  
Heating Degree Days 12 11  
Month to date heating degree days 33 52  
Since 1 July heating degree days 175 225  
Cooling Degree Days 0 0  
Month to date cooling degree days 0 2  
Year to date cooling degree days 925 563  
Growing Degree Days 2 (Base 50)    
Moisture  
Dew Point 36 °F    
Average Humidity 55    
Maximum Humidity 66    
Minimum Humidity 44    
Precipitation  
Precipitation 0.00 in 0.10 in 1.63 in (1904)
Month to date precipitation 0.59 0.52  
Year to date precipitation 21.86 24.99  
Snow  
Snow 0.00 in 0.00 in - ()
Month to date snowfall 0.0 0.0  
Since 1 July snowfall 0.0 0.0  
Since 1 September snowfall 0.0 0.0  
Snow Depth 0.00 in    
Sea Level Pressure  
Sea Level Pressure 30.04 in    
Wind  
Wind Speed 13 mph (West)    
Max Wind Speed 20 mph    
Max Gust Speed 31 mph    
Visibility 10 miles    
Events      
T = Trace of Precipitation, MM = Missing Value Source: NWS Daily Summary

Daily Weather History Graph

Daily Weather History Graph

Search for Another Location

Airport:

Trip Planner

Search our weather history database for the weather conditions in past years. The results will help you decide how hot, cold, wet, or windy it might be!

Date:

Astronomy

Oct. 05, 2012 Rise Set
Actual Time 7:47 AM EDT 7:18 PM EDT
Civil Twilight 7:19 AM EDT 7:46 PM EDT
Nautical Twilight 6:46 AM EDT 8:19 PM EDT
Astronomical Twilight 6:12 AM EDT 8:52 PM EDT
Moon 10:33 PM EDT (10/5) 1:02 PM EDT (10/5)
Length of Visible Light 12h 27m
Length of Day
11h 30m
Waning Gibbous, 74% of the Moon is Illuminated
Oct 5
Waning Gibbous
Oct 8
Last Quarter
Oct 15
New
Oct 21
First Quarter
Oct 29
Full

Hourly Weather History & Observations

Time (EDT) Temp. Dew Point Humidity Pressure Visibility Wind Dir Wind Speed Gust Speed Precip Events Conditions
12:55 AM 57.0 °F 41.0 °F 55% 30.04 in 10.0 mi West 11.5 mph - N/A   Clear
1:55 AM 55.0 °F 39.9 °F 57% 30.04 in 10.0 mi WNW 11.5 mph - N/A   Clear
2:55 AM 53.1 °F 37.9 °F 57% 30.04 in 10.0 mi WNW 17.3 mph 23.0 mph N/A   Clear
3:55 AM 51.1 °F 37.9 °F 61% 30.06 in 10.0 mi WNW 15.0 mph 23.0 mph N/A   Clear
4:55 AM 50.0 °F 39.0 °F 66% 30.07 in 10.0 mi WNW 13.8 mph - N/A   Partly Cloudy
5:55 AM 48.9 °F 37.9 °F 66% 30.08 in 10.0 mi WNW 11.5 mph - N/A   Scattered Clouds
6:55 AM 48.9 °F 37.0 °F 64% 30.07 in 10.0 mi West 15.0 mph - N/A   Partly Cloudy
7:20 AM 48.2 °F 37.4 °F 66% 30.07 in 10.0 mi West 15.0 mph 20.7 mph N/A   Mostly Cloudy
7:50 AM 48.2 °F 35.6 °F 62% 30.06 in 10.0 mi West 15.0 mph 20.7 mph N/A   Scattered Clouds
7:55 AM 48.0 °F 37.0 °F 66% 30.07 in 10.0 mi West 13.8 mph 20.7 mph N/A   Scattered Clouds
8:55 AM 48.9 °F 36.0 °F 61% 30.07 in 10.0 mi West 12.7 mph 18.4 mph N/A   Partly Cloudy
9:55 AM 51.1 °F 37.0 °F 59% 30.08 in 10.0 mi West 15.0 mph 20.7 mph N/A   Scattered Clouds
10:55 AM 51.1 °F 37.0 °F 59% 30.08 in 10.0 mi West 18.4 mph 24.2 mph N/A   Partly Cloudy
11:47 AM 51.8 °F 37.4 °F 58% 30.07 in 10.0 mi WNW 11.5 mph - N/A   Mostly Cloudy
11:55 AM 52.0 °F 37.9 °F 59% 30.07 in 10.0 mi WNW 12.7 mph 18.4 mph N/A   Mostly Cloudy
12:55 PM 54.0 °F 37.9 °F 55% 30.07 in 10.0 mi WSW 13.8 mph 19.6 mph N/A   Mostly Cloudy
1:55 PM 53.1 °F 37.9 °F 57% 30.06 in 10.0 mi WSW 12.7 mph 19.6 mph N/A   Overcast
2:55 PM 53.1 °F 37.9 °F 57% 30.04 in 10.0 mi West 11.5 mph - N/A   Overcast
3:02 PM 51.8 °F 37.4 °F 58% 30.03 in 10.0 mi WSW 10.4 mph - N/A   Partly Cloudy
3:55 PM 51.1 °F 37.9 °F 61% 30.02 in 10.0 mi WSW 10.4 mph - N/A   Overcast
4:55 PM 53.1 °F 36.0 °F 52% 30.01 in 10.0 mi SW 16.1 mph 20.7 mph N/A   Mostly Cloudy
5:55 PM 52.0 °F 34.0 °F 50% 29.99 in 10.0 mi WSW 8.1 mph - N/A   Mostly Cloudy
6:55 PM 52.0 °F 33.1 °F 49% 29.99 in 10.0 mi West 6.9 mph 17.3 mph N/A   Mostly Cloudy
7:55 PM 52.0 °F 30.9 °F 45% 29.99 in 10.0 mi West 12.7 mph 20.7 mph N/A   Scattered Clouds
8:55 PM 52.0 °F 30.9 °F 45% 29.99 in 10.0 mi West 13.8 mph 19.6 mph N/A   Partly Cloudy
9:55 PM 51.1 °F 30.9 °F 46% 29.99 in 10.0 mi WNW 11.5 mph 21.9 mph N/A   Scattered Clouds
10:55 PM 50.0 °F 30.9 °F 48% 29.98 in 10.0 mi WNW 17.3 mph 24.2 mph N/A   Mostly Cloudy
11:55 PM 50.0 °F 30.0 °F 46% 29.98 in 10.0 mi WNW 16.1 mph 23.0 mph N/A   Mostly Cloudy